Regional Weather Roundup
Issued by NWS Sterling, VA

Home | Current Version | Previous Version | Graphics & Text | Print | Product List | Glossary On
Versions: 1 2 3 4 5 6 7 8 9 10 11 12 13 14 15 16 17 18 19 20 21 22 23 24 25 26 27 28 29 30 31 32 33 34 35 36 37 38 39 40 41 42 43 44 45 46 47 48 49 50
000
ASUS41 KLWX 242010
RWRLWX

REGIONAL WEATHER ROUNDUP
NATIONAL WEATHER SERVICE BALTIMORE MD/WASHINGTON DC
400 PM EDT THU JUL 24 2014

Note: "FAIR" indicates few or no clouds below 12,000 feet
with no significant weather and/or obstructions to visibility.
 TC=TEMPERATURE CELSIUS

 * =Non NWS site. Station does not report precipitation (e.g. rain,
    snow, etc.), thunder, or fog.

DCZ001-MDZ009-015-VAZ040>042-051-053>054-242100-
WASHINGTON METRO
  /KDAA//-FT BELVOIR

CITY           SKY/WX    TMP DP  RH WIND       PRES   REMARKS
WASHINGTON NAT PTSUNNY   83  61  47 VRB7      29.90F
DULLES         CLOUDY    76  61  59 VRB7      29.91F
ANDREWS AFB    PTSUNNY   78  63  60 VRB3      29.90F
QUANTICO       LGT RAIN  75  63  66 NW6       29.92R
COLLEGE PARK*  CLOUDY    79  63  57 N5        29.90S
LEESBURG*      PTSUNNY   77  64  65 N7        29.93S
MANASSAS*      CLOUDY    75  63  64 N6        29.92S
GAITHERSBURG*  CLOUDY    75  63  64 CALM      29.95S

$$

MDZ006>007-011-014-242100-
BALTIMORE METRO

CITY           SKY/WX    TMP DP  RH WIND       PRES   REMARKS
BWI AIRPORT    PTSUNNY   80  61  52 NW9       29.89S
MD SCIENCE CTR   N/A     81  56  42 MISG      29.90S
MARTIN STATE   PTSUNNY   79  63  57 NW8       29.90S
ANNAPOLIS      CLOUDY    77  64  64 NE6       29.89S
FORT MEADE*    CLOUDY    77  61  57 NW6       29.92S

$$

MDZ012-015-019>023-242100-
MARYLAND EASTERN SHORE

CITY           SKY/WX    TMP DP  RH WIND       PRES   REMARKS
OCEAN CITY     CLOUDY    78  68  71 N6        29.87S
SALISBURY      NOT AVBL
BAY BRIDGE AP*   N/A     77  63  61 N7        29.89F
CAMBRIDGE*     MOSUNNY   77  64  65 N7        29.89R
EASTON*        PTSUNNY   81  66  61 NE5       29.93S

$$

MDZ017>025-242100-
SOUTHERN MARYLAND

CITY           SKY/WX    TMP DP  RH WIND       PRES   REMARKS
PATUXENT RIVER CLOUDY    76  67  73 N10       29.89S
ST INIGOES     PTSUNNY   76  66  71 VRB6      29.89R
LEONARDTOWN*   CLOUDY    73  64  73 N6        29.91S

$$

MDZ003>005-242100-
NORTH CENTRAL MARYLAND

CITY           SKY/WX    TMP DP  RH WIND       PRES   REMARKS
FREDERICK*     MOSUNNY   79  63  57 N5        29.94S
HAGERSTOWN APT PTSUNNY   77  53  43 NW13      29.94R
WESTMINSTER*   CLOUDY    79  61  53 N8        29.93S

$$

MDZ501>502-242100-
WESTERN MARYLAND

CITY           SKY/WX    TMP DP  RH WIND       PRES   REMARKS
OAKLAND*       PTSUNNY   68  48  49 NW5       30.03F
CUMBERLAND*    PTSUNNY   82  52  34 N9        29.97F

$$

VAZ025>031-242100-
SHENANDOAH VALLEY

CITY           SKY/WX    TMP DP  RH WIND       PRES   REMARKS
WINCHESTER*    CLOUDY    73  61  64 NW3       29.94F
STAUNTON*      CLOUDY    67  64  88 N9        29.97S

$$

WVZ021-048>050-054>055-242100-
EASTERN WEST VIRGINIA PANHANDLE

CITY           SKY/WX    TMP DP  RH WIND       PRES   REMARKS
MARTINSBURG    CLOUDY    78  55  44 N7        29.94S
PETERSBURG*    CLOUDY    70  60  69 CALM      29.97F

$$

VAZ036>039-050-242100-
CENTRAL FOOTHILLS

CITY           SKY/WX    TMP DP  RH WIND       PRES   REMARKS
CHARLOTTESVILL LGT RAIN  69  65  86 E7        29.91F
ORANGE*        LGT RAIN  66  63  88 N6        29.94S

$$

VAZ055>057-242100-
NORTH AND CENTRAL PIEDMONT

CITY           SKY/WX    TMP DP  RH WIND       PRES   REMARKS
FREDERICKSBRG* DRIZZLE   73  73  99 CALM      29.90F
STAFFORD*      LGT RAIN  73  71  96 NW9       29.95S

$$

NCZ024-NYZ072-PAZ021-071-VAZ022-071-242100-
OTHER REGIONAL OBSERVATIONS

CITY           SKY/WX    TMP DP  RH WIND       PRES   REMARKS
NEW YORK CITY  MOSUNNY   79  59  50 E8        29.87F
PHILADELPHIA   PTSUNNY   83  55  38 NW12      29.86F
PITTSBURGH     MOSUNNY   74  51  44 N9        30.01S
ROANOKE        LGT RAIN  73  68  83 N8        29.95R
RICHMOND       HVY RAIN  78  72  81 E8        29.85F
RALEIGH        RAIN      84  72  67 NE6       29.86F FOG

$$

ANZ530>537-242100-
MARINE OBSERVATIONS

STATION/POSITION TIME  TEMP    WIND        PRES
                       AIR SEA DIR/SP/G
                 (UTC) (F)     (DEG/KT/KT) (MB)
THOMAS PT LIGHT  2000   75 80   50/  8/  9 1012.7F
BALT KEY BRIDGE  2000   78     310/ 10/ 11 1011.8F
COVE POINT       2000   74      10/ 12/ 15 1012.1S
LEWISETTA        2000   75 81   10/  7/ 12 1011.8S
SOLOMONS ISLAND  2000      82                N/A
PINEY POINT      2000           10/ 10/ 13   N/A

$$




USA.gov is the U.S. government's official web portal to all federal, state and local government web resources and services.